Temperature
17 17 17 17 17 17 17 17 17 17 17 17 17 17 17 17 17 17 17 17 17 17 17 17 17 17 16 16 16 16 16 16 16 16 16 16 16 16 16 16 15 15 15
17 17 17 17 17 17 17 17 17 17 17 17 17 17 17 17 16 16 16 17 17 17 17 17 17 17 16 16 16 16 16 16 16 16 16 16 16 15 15 15 15 15 15
17 17 17 17 17 17 17 17 17 17 17 17 17 17 17 17 17 16 16 16 17 17 17 17 17 17 16 16 16 16 16 16 16 16 16 16 15 15 15 15 15 15 15
17 17 17 17 17 17 17 17 17 17 17 17 17 17 17 17 17 16 17 17 16 16 17 17 17 17 16 16 16 16 16 16 16 16 16 16 16 15 15 15 15 15 15
17 17 17 17 17 17 17 17 17 17 17 17 17 17 17 17 17 17 17 17 17 16 16 17 17 17 16 16 16 16 16 16 16 16 16 16 16 15 15 15 15 15 15
17 17 17 17 17 17 17 17 17 17 17 17 17 17 17 17 17 17 17 17 17 17 17 16 16 17 17 17 16 16 16 16 16 16 16 16 16 15 15 15 15 15 15
17 18 17 17 17 17 17 17 17 17 17 17 17 17 17 17 17 17 17 17 17 17 17 16 16 16 16 16 16 16 16 16 16 16 16 16 15 15 15 15 15 15 15
17 17 17 17 17 17 17 17 17 17 17 17 17 17 18 18 18 18 17 17 17 17 17 17 16 16 16 16 16 16 16 16 16 16 16 16 15 15 15 15 15 15 15
17 17 17 17 17 17 17 17 17 17 17 17 17 17 18 18 18 18 17 17 17 17 17 17 16 16 16 16 16 16 16 16 16 16 16 15 15 15 15 15 15 15 14
17 17 17 17 17 17 17 17 17 17 17 17 17 17 17 17 17 17 17 17 17 17 17 17 17 16 16 16 16 16 16 16 16 16 15 15 15 15 15 15 15 15 14
17 17 17 17 17 17 17 17 17 17 17 17 17 17 17 17 17 17 17 17 17 17 16 16 16 16 16 16 16 16 16 16 16 15 15 15 15 15 15 15 15 14 14
17 17 17 17 17 17 17 17 17 17 17 17 17 17 16 16 17 17 17 17 17 16 16 16 16 16 16 16 16 16 16 16 16 15 15 15 15 15 15 14 14 14 14
17 17 17 17 17 17 17 17 17 17 17 17 17 16 16 16 16 16 16 16 16 16 16 16 16 16 16 16 15 15 15 15 15 15 15 15 15 14 14 14 14 14 14
17 17 17 17 17 17 17 17 17 17 16 16 16 16 16 16 16 16 16 16 16 16 16 16 15 15 15 15 15 15 15 15 15 15 15 15 14 14 14 14 14 13 13
17 17 17 17 17 17 17 17 17 17 16 16 16 16 16 16 16 16 16 16 16 16 16 15 15 15 15 15 15 14 14 14 15 14 14 14 14 14 13 13 13 13 13
17 17 17 17 17 17 17 17 16 16 16 16 16 16 16 16 16 16 16 16 15 15 15 15 15 15 15 14 14 14 14 14 14 14 14 14 13 13 13 13 13 13 13
17 17 17 17 17 16 16 16 16 16 16 16 16 16 16 16 15 15 15 15 15 15 15 15 14 14 14 14 13 13 13 13 13 13 13 13 13 13 13 13 13 12 12
17 17 17 17 17 16 16 16 16 16 16 16 16 16 15 15 15 15 15 15 15 15 15 14 14 14 14 13 13 13 13 13 13 13 13 13 13 13 13 12 12 12 12
17 17 17 16 16 16 16 16 16 15 15 16 15 15 15 15 15 15 15 15 15 14 14 14 14 13 13 13 13 12 12 12 12 12 12 12 12 12 12 12 12 12 11
17 17 16 16 16 16 16 15 15 15 15 15 15 15 15 15 15 15 15 14 14 14 14 14 13 13 13 12 12 12 12 12 12 12 12 12 12 11 11 11 11 11 11
16 16 16 16 16 15 15 15 15 15 15 15 15 14 14 14 14 14 14 14 14 14 13 13 13 13 12 12 12 12 12 11 11 11 11 11 11 11 11 11 10 10 10
16 16 16 15 15 15 15 15 15 15 15 14 14 14 14 14 14 14 14 14 14 13 13 13 13 12 12 12 12 12 12 11 11 11 11 11 11 10 10 10 10 10 10
16 16 15 15 15 15 15 15 15 14 14 14 14 14 14 13 13 13 13 13 13 13 13 12 12 12 12 12 12 11 11 11 11 11 11 10 10 10 10 10 9 9 9
16 15 15 15 15 14 14 14 14 14 14 14 13 13 13 13 13 13 13 13 13 12 12 12 12 12 12 12 11 11 11 11 11 10 10 10 10 9 9 9 9 9 9
15 15 15 14 14 14 14 14 14 13 13 13 13 13 13 13 13 12 12 12 12 12 12 12 12 12 12 11 11 11 11 11 10 10 10 10 9 9 9 9 9 8 8
15 15 14 14 14 14 14 13 13 13 13 13 12 12 12 12 12 12 11 11 11 11 11 11 11 11 11 11 11 11 11 11 11 10 10 9 9 9 9 9 8 8 8
Wind_Speed
4 4 4 3 4 5 6 4 4 4 3 3 3 3 2 2 2 3 7 10 9 8 8 8 8 8 8 8 8 8 8 8 8 8 8 8 7 7 7 7 6 6 6
4 4 4 4 4 4 3 4 4 4 3 3 2 2 2 2 3 3 4 9 10 10 9 9 9 9 9 9 9 9 9 9 9 9 8 8 8 8 8 8 7 6 6
4 3 3 4 4 4 4 4 3 3 3 3 3 3 3 3 3 3 4 5 8 11 11 10 10 10 10 10 11 11 11 11 10 10 10 9 9 9 8 8 8 7 7
4 4 3 3 4 4 4 3 3 3 3 3 3 3 3 3 4 4 5 5 5 6 11 12 11 11 11 11 12 12 12 12 12 12 11 11 10 10 10 9 9 8 8
6 5 4 3 4 4 3 4 3 3 3 3 3 4 4 4 4 5 5 5 5 6 6 11 13 12 12 12 13 13 13 13 13 13 13 13 12 12 11 11 10 10 10
7 6 5 5 5 4 4 3 3 3 3 3 4 2 3 4 4 4 5 6 6 7 7 7 9 12 14 13 13 13 14 14 15 14 14 14 13 12 12 11 11 11 11
7 7 5 5 5 5 4 5 4 4 4 3 3 3 4 5 5 4 5 4 5 6 6 6 7 7 9 14 15 14 14 14 15 15 15 15 14 13 13 13 12 12 11
7 7 6 5 5 5 5 5 5 4 4 4 4 4 4 4 5 5 4 4 4 4 5 6 6 6 8 7 10 15 15 14 14 14 14 14 14 14 14 13 12 12 11
8 7 6 6 5 6 6 6 6 7 5 5 5 4 4 3 2 3 3 3 3 3 4 4 5 6 8 8 7 11 13 13 13 13 13 14 14 12 12 13 13 13 12
7 7 7 7 6 5 5 7 7 6 6 6 5 5 6 4 3 2 3 3 4 4 4 4 4 5 6 6 6 6 11 12 13 12 12 12 13 13 13 13 13 13 13
6 6 6 6 6 6 6 6 5 7 6 7 5 5 6 5 6 6 5 4 3 4 4 4 4 4 4 5 5 5 8 10 11 11 11 11 10 11 12 12 11 11 11
5 5 6 5 6 5 5 6 6 7 7 7 6 6 6 6 6 6 6 6 5 4 3 3 4 3 4 4 4 4 7 9 9 10 10 10 9 9 9 10 11 10 10
4 4 5 5 5 5 5 6 6 6 7 7 7 7 7 7 6 6 6 6 6 5 3 3 3 3 3 3 2 5 5 7 8 9 9 9 8 8 8 8 8 9 8
3 3 4 4 5 5 5 5 5 6 6 6 7 7 6 7 6 6 6 5 5 5 4 4 3 2 1 1 2 3 3 6 8 8 9 9 8 8 8 8 7 7 7
3 4 4 4 4 4 4 5 4 5 5 6 6 6 6 6 5 6 6 6 6 6 5 4 3 1 0 1 2 2 2 5 7 8 8 8 8 8 8 8 7 7 7
3 3 3 4 4 4 4 4 4 4 4 4 4 5 5 5 5 5 6 6 6 6 5 3 2 1 1 1 2 2 2 4 5 7 8 8 8 8 8 8 7 8 8
3 3 3 3 4 4 4 3 4 3 4 3 3 3 4 5 5 4 5 5 5 5 5 4 1 1 1 1 1 1 1 2 3 6 8 8 8 8 9 9 9 9 9
3 3 3 3 4 3 3 4 4 3 3 3 3 3 4 4 4 4 4 4 4 4 5 4 3 2 2 1 1 1 1 2 2 5 7 7 7 8 8 8 9 9 9
2 2 2 2 2 2 2 2 3 2 2 2 2 3 3 3 3 3 3 3 3 3 3 4 3 2 2 2 1 1 1 1 2 3 5 6 6 7 8 9 9 10 10
2 1 1 1 1 1 1 1 2 2 1 1 1 1 2 2 2 2 2 2 2 3 3 3 3 2 2 1 1 2 1 1 1 2 3 5 6 6 6 7 8 10 10
2 2 2 1 1 1 1 1 1 1 1 1 0 0 1 2 3 2 2 2 2 3 3 3 3 2 2 2 2 2 2 1 0 1 2 3 4 4 4 5 6 8 10
3 3 3 2 2 1 3 2 1 1 1 1 0 0 0 0 1 2 2 2 2 2 2 3 3 3 4 3 3 3 3 2 2 1 2 2 3 2 3 4 6 8 9
4 3 3 2 2 4 5 3 2 0 0 0 0 1 1 1 1 1 1 1 0 1 2 3 4 4 4 4 4 3 3 3 2 2 2 2 2 2 2 4 7 9 10
4 3 3 3 3 4 5 3 1 1 1 1 1 1 1 1 2 2 1 1 1 1 1 2 2 2 2 3 4 4 3 3 2 2 2 2 2 2 2 4 7 9 10
4 4 4 4 4 4 5 2 1 1 1 1 2 2 1 2 3 3 1 1 1 1 3 3 2 2 2 1 2 3 3 3 3 2 2 2 2 2 2 2 5 8 9
4 4 4 4 4 4 5 3 1 1 1 1 2 2 4 3 3 3 0 0 0 1 1 1 2 3 3 3 3 3 3 3 3 2 2 3 3 3 2 2 3 5 6
Wind_Direction
144 135 129 134 144 133 144 144 139 128 135 142 150 148 150 134 140 145 141 160 178 186 189 190 190 191 190 190 189 188 188 188 187 185 185 183 179 179 179 180 181 182 179
151 157 156 155 150 152 142 152 153 160 170 154 165 163 180 179 163 182 163 164 182 193 198 201 203 202 201 202 202 202 201 200 198 196 196 194 194 194 194 194 194 196 195
169 185 171 176 164 163 164 186 182 189 191 187 187 192 202 209 193 196 199 186 181 191 200 206 209 210 210 212 211 211 209 208 207 206 206 206 207 208 207 205 203 203 203
195 206 197 185 172 188 189 190 202 202 200 212 210 213 202 196 214 215 213 208 203 193 191 201 210 215 217 218 218 218 216 216 214 212 212 213 215 215 213 210 209 208 208
206 212 208 190 194 197 206 220 191 211 213 221 220 210 216 209 216 219 224 221 212 215 203 189 204 214 221 223 223 223 221 219 219 218 218 219 218 219 216 215 214 214 213
214 221 212 206 212 207 213 218 211 221 229 232 245 231 223 222 224 221 227 225 218 220 223 213 203 210 216 223 226 227 226 225 224 221 221 221 219 219 218 217 218 219 217
218 220 229 208 218 217 221 216 216 213 224 226 238 239 231 223 225 228 231 237 225 223 228 228 229 225 212 214 221 225 227 230 229 226 224 224 223 222 219 220 221 220 219
223 220 223 226 221 218 218 221 222 234 235 225 242 251 247 225 213 216 219 221 233 230 226 229 234 237 243 229 216 217 225 230 232 231 227 225 224 224 221 221 221 221 220
223 230 226 232 232 230 220 222 225 231 240 237 236 251 260 253 250 202 213 224 225 238 243 242 240 238 238 240 229 210 215 222 227 229 227 223 220 218 217 218 220 220 220
225 227 227 230 234 237 232 233 228 235 238 244 236 242 258 283 270 250 226 218 220 236 255 260 257 245 241 240 230 224 208 214 221 223 220 218 217 216 214 214 218 218 219
227 229 224 226 230 237 234 240 239 239 238 242 246 247 247 247 247 256 258 253 250 251 252 257 262 258 243 235 236 223 200 205 210 210 210 212 215 214 210 209 212 215 217
224 224 227 227 233 238 235 235 237 236 245 251 251 253 252 252 249 249 257 256 258 258 256 268 268 257 243 234 217 170 175 190 196 199 201 202 207 209 207 208 211 212 213
225 218 230 228 235 237 238 238 239 245 243 247 249 252 254 256 260 256 257 261 263 265 256 259 262 257 241 228 192 148 169 181 187 189 189 191 197 201 198 199 202 203 203
232 223 226 229 235 238 242 239 246 244 245 249 253 257 259 259 256 251 247 250 258 258 246 250 253 269 270 223 103 136 169 169 178 183 187 191 194 195 190 190 189 191 194
226 219 225 227 232 238 243 242 248 251 251 254 259 256 258 264 258 250 246 242 248 260 261 245 243 275 138 135 133 173 164 152 168 179 183 186 185 188 186 185 182 180 184
226 224 231 238 240 239 238 240 250 252 254 260 266 275 272 271 272 261 254 249 249 253 265 275 252 236 120 100 123 138 140 131 159 178 184 184 183 181 179 182 182 180 181
225 232 236 239 244 245 240 234 246 247 250 264 275 277 278 281 275 269 257 248 243 238 246 263 258 219 201 211 128 110 112 123 126 161 173 177 181 180 179 180 182 181 181
224 228 237 237 245 244 236 233 242 246 249 264 278 289 287 282 272 270 263 251 244 237 236 238 245 246 230 210 190 168 125 116 108 122 149 168 176 179 179 178 177 173 170
210 219 231 233 242 244 232 226 231 234 235 252 274 280 288 290 283 277 268 261 252 239 232 226 235 241 242 218 182 135 110 108 113 128 141 149 162 175 178 173 169 166 165
158 158 174 192 204 206 197 210 213 209 206 231 269 282 293 299 297 294 279 266 251 241 224 215 215 218 225 223 199 196 192 175 174 140 128 131 138 150 160 167 169 168 166
137 134 133 127 129 153 147 158 206 192 180 178 109 343 337 15 20 349 311 291 260 248 232 214 207 207 210 208 206 214 205 187 196 179 161 150 143 140 142 160 172 175 171
133 136 133 142 140 123 81 73 39 156 168 166 127 329 317 73 74 67 42 10 328 266 248 231 228 219 221 219 209 212 215 228 231 202 183 168 152 157 157 150 159 168 168
140 137 135 141 130 98 85 79 51 9 56 70 52 0 344 40 72 65 98 146 47 351 271 247 237 237 228 215 206 211 227 239 244 185 189 170 172 166 158 143 155 165 167
151 144 138 137 127 107 95 91 83 141 88 59 54 51 35 18 16 16 34 28 14 15 322 262 248 245 218 202 202 210 203 196 188 176 199 201 190 183 161 144 155 163 166
154 148 137 131 125 114 107 107 307 138 125 93 69 51 48 60 27 0 43 40 21 18 80 84 87 101 94 141 193 204 199 196 198 186 189 206 186 172 158 147 151 164 170
152 144 132 132 129 119 110 100 330 141 118 109 98 83 63 51 19 351 348 245 275 312 19 106 132 154 157 156 181 218 224 218 207 194 177 197 183 177 173 149 151 161 166
Height
1580 1580 1580 1581 1583 1584 1584 1585 1586 1587 1587 1588 1589 1590 1591 1591 1592 1592 1591 1590 1590 1591 1591 1592 1592 1593 1593 1594 1595 1595 1596 1596 1597 1597 1598 1599 1599 1599 1600 1600 1601 1601 1601
1580 1581 1581 1582 1583 1584 1585 1586 1587 1587 1588 1589 1589 1590 1591 1591 1591 1591 1592 1591 1590 1591 1591 1591 1592 1592 1593 1593 1594 1594 1595 1596 1596 1597 1597 1598 1598 1599 1599 1600 1600 1600 1601
1579 1580 1582 1582 1583 1584 1584 1585 1586 1587 1588 1589 1589 1589 1590 1590 1591 1590 1591 1591 1591 1590 1590 1590 1591 1591 1592 1592 1593 1593 1594 1594 1595 1596 1596 1597 1597 1598 1598 1599 1599 1599 1600
1578 1580 1581 1582 1582 1584 1584 1585 1586 1587 1588 1588 1588 1588 1589 1589 1589 1589 1590 1590 1590 1590 1589 1589 1590 1590 1591 1591 1591 1592 1592 1593 1593 1594 1594 1595 1596 1596 1597 1597 1598 1598 1598
1578 1579 1580 1581 1582 1583 1584 1585 1586 1586 1586 1587 1587 1587 1587 1587 1587 1588 1588 1589 1588 1588 1589 1588 1588 1588 1589 1589 1590 1590 1590 1591 1591 1592 1592 1593 1593 1594 1594 1595 1596 1596 1596
1577 1578 1579 1579 1581 1582 1582 1583 1583 1584 1585 1585 1586 1586 1586 1586 1586 1586 1586 1587 1587 1587 1587 1587 1587 1587 1587 1587 1588 1588 1588 1589 1589 1590 1590 1591 1591 1592 1592 1593 1593 1594 1594
1575 1576 1577 1578 1579 1580 1580 1581 1582 1582 1583 1584 1584 1584 1584 1584 1584 1584 1584 1585 1585 1585 1585 1585 1585 1585 1585 1585 1585 1585 1586 1586 1586 1587 1587 1588 1588 1589 1590 1590 1591 1591 1591
1573 1575 1575 1576 1577 1578 1578 1579 1579 1581 1581 1582 1583 1583 1583 1583 1582 1582 1582 1582 1582 1582 1582 1582 1582 1582 1582 1582 1582 1582 1583 1583 1583 1584 1584 1585 1585 1586 1586 1587 1587 1588 1588
1572 1572 1573 1574 1574 1575 1576 1576 1577 1578 1579 1580 1580 1581 1581 1580 1580 1580 1579 1579 1579 1579 1580 1580 1579 1579 1579 1579 1579 1579 1579 1580 1580 1581 1581 1582 1582 1583 1583 1583 1584 1584 1585
1569 1570 1570 1571 1572 1573 1573 1574 1575 1575 1576 1577 1577 1577 1578 1578 1578 1578 1578 1577 1577 1577 1577 1577 1577 1576 1576 1576 1575 1575 1576 1576 1577 1577 1578 1578 1578 1579 1579 1580 1580 1581 1581
1567 1568 1568 1569 1569 1570 1571 1571 1572 1572 1573 1574 1574 1574 1575 1575 1575 1575 1575 1575 1574 1574 1573 1573 1573 1573 1572 1572 1572 1572 1572 1572 1573 1573 1574 1574 1575 1575 1576 1576 1576 1577 1578
1565 1566 1566 1566 1567 1567 1568 1568 1569 1569 1570 1570 1570 1571 1571 1572 1572 1572 1571 1571 1570 1571 1570 1570 1569 1569 1569 1569 1568 1568 1568 1568 1569 1569 1570 1570 1571 1571 1572 1572 1572 1573 1573
1563 1563 1564 1564 1564 1565 1565 1566 1566 1566 1566 1566 1567 1567 1567 1567 1568 1568 1568 1567 1567 1567 1567 1566 1566 1566 1566 1566 1565 1564 1564 1564 1565 1565 1565 1566 1566 1567 1567 1568 1568 1569 1569
1561 1561 1561 1561 1562 1562 1562 1562 1563 1563 1563 1563 1563 1563 1563 1563 1563 1563 1564 1564 1563 1563 1563 1563 1563 1563 1563 1562 1561 1561 1561 1560 1561 1561 1561 1562 1562 1562 1563 1564 1564 1565 1565
1558 1558 1558 1559 1559 1559 1559 1560 1560 1560 1560 1560 1560 1559 1559 1560 1560 1559 1560 1560 1560 1559 1559 1559 1559 1559 1559 1559 1558 1557 1557 1556 1557 1557 1557 1558 1558 1558 1559 1560 1560 1561 1561
1555 1556 1556 1556 1557 1557 1557 1557 1557 1557 1556 1556 1556 1556 1556 1556 1556 1555 1556 1556 1556 1556 1556 1556 1556 1556 1555 1555 1554 1554 1553 1553 1553 1553 1553 1553 1554 1554 1554 1555 1556 1557 1557
1553 1553 1554 1554 1554 1554 1554 1554 1554 1554 1554 1554 1553 1553 1552 1552 1552 1552 1552 1552 1552 1552 1552 1552 1552 1552 1551 1551 1551 1550 1550 1549 1549 1549 1549 1549 1550 1550 1550 1551 1552 1553 1553
1551 1551 1551 1551 1551 1551 1551 1551 1551 1551 1551 1551 1551 1550 1550 1549 1549 1549 1548 1549 1549 1549 1549 1548 1548 1548 1548 1548 1547 1547 1547 1546 1546 1546 1546 1546 1546 1546 1547 1547 1548 1549 1549
1548 1549 1549 1549 1549 1549 1549 1549 1549 1549 1548 1548 1548 1548 1547 1547 1546 1546 1546 1546 1546 1546 1546 1545 1545 1545 1545 1545 1544 1544 1544 1544 1544 1543 1543 1543 1543 1543 1543 1543 1544 1544 1545
1547 1547 1547 1547 1547 1547 1547 1547 1546 1546 1546 1546 1546 1545 1545 1544 1544 1543 1543 1543 1543 1543 1543 1542 1542 1542 1542 1542 1542 1542 1541 1541 1541 1541 1541 1540 1540 1540 1540 1540 1540 1540 1541
1545 1545 1545 1545 1545 1545 1545 1544 1544 1544 1544 1544 1543 1543 1542 1542 1541 1541 1541 1541 1540 1540 1540 1540 1540 1539 1539 1539 1539 1539 1539 1539 1539 1539 1539 1538 1538 1538 1537 1537 1537 1537 1537
1543 1543 1543 1543 1543 1543 1542 1542 1542 1542 1542 1542 1541 1541 1540 1540 1539 1539 1539 1538 1538 1538 1537 1537 1537 1537 1536 1537 1537 1537 1537 1537 1537 1537 1537 1537 1537 1536 1536 1535 1534 1534 1534
1541 1541 1541 1541 1541 1540 1540 1540 1540 1540 1540 1540 1539 1539 1539 1538 1538 1537 1537 1536 1536 1535 1535 1535 1535 1534 1534 1534 1534 1535 1535 1535 1535 1535 1535 1534 1535 1534 1534 1533 1532 1532 1532
1540 1540 1540 1540 1539 1539 1538 1538 1538 1538 1538 1538 1537 1537 1536 1536 1536 1535 1535 1534 1534 1533 1533 1532 1532 1532 1532 1532 1532 1533 1532 1532 1532 1532 1533 1533 1533 1532 1532 1531 1531 1531 1531
1538 1538 1538 1538 1538 1537 1537 1537 1537 1536 1536 1536 1536 1535 1535 1535 1534 1533 1533 1532 1531 1531 1531 1530 1529 1529 1529 1529 1530 1531 1531 1531 1530 1530 1530 1531 1531 1530 1530 1530 1530 1529 1529
1536 1537 1537 1537 1537 1536 1536 1536 1535 1536 1535 1535 1534 1534 1533 1533 1532 1532 1531 1531 1530 1529 1529 1528 1528 1527 1527 1527 1527 1527 1528 1528 1528 1528 1528 1528 1529 1529 1529 1529 1529 1528 1528